Weather observations for the past three days for
Perry-Foley Airport
Imperial (Metric)
Date Time (edt) Wind (mph) Vis. (mi.) Weather Sky Cond. Temperature (ºF) Relative Humidity Wind Chill (°F) Heat Index (°F) Pressure Precipitation (in)
Air Dwpt 6 hour altimeter (in) sea level (mb) 1 hr 3 hr 6 hr
Max. Min.
22 22:15 SW 7 10.00 Fair CLR 82.6 76.1 81% 90 30.01 0.0
22 21:55 SW 6 10.00 Fair CLR 82.6 76.1 81% 90 30.02 0.0
22 21:35 SW 6 10.00 Fair CLR 83.1 75.7 79% 91 30.01 0.0
22 21:15 SW 6 10.00 Fair CLR 83.3 75.7 78% 91 30 0.0
22 20:55 SW 8 10.00 Fair CLR 84.2 75.6 75% 93 30 0.0
22 20:35 SW 9 10.00 Fair CLR 85.1 75.4 73% 94 30 0.0
22 20:15 SW 9 10.00 Fair CLR 86.2 74.8 69% 95 30 0.0
22 19:55 SW 10 10.00 Fair CLR 87.1 74.7 96.3 87.1 67% 96 29.99 0.0
22 19:35 SW 10 10.00 Fair CLR 88.3 74.7 64% 98 29.99 0.0
22 19:15 SW 12 10.00 Fair CLR 89.6 74.1 60% 99 29.98 0.0
22 18:55 SW 13 G 16 10.00 Fair CLR 90.5 74.3 59% 100 29.97 0.0
22 18:35 SW 12 10.00 Fair CLR 91.4 73.9 57% 101 29.97 0.0
22 18:15 S 10 10.00 Fair CLR 92.1 74.1 56% 102 29.97 0.0
22 17:55 SW 10 10.00 Fair CLR 93.9 74.8 54% 105 29.97 0.0
22 17:35 S 10 10.00 Fair CLR 93.2 75 56% 105 29.96 0.0
22 17:15 S 10 10.00 Fair CLR 93.4 75.4 56% 105 29.96 0.0
22 16:55 S 13 10.00 Partly Cloudy SCT050 94.1 75.4 55% 106 29.97 0.0
22 16:35 SW 8 10.00 Fair CLR 94.6 73.2 50% 104 29.97 0.0
22 16:15 S 6 10.00 Partly Cloudy SCT055 SCT080 94.1 73 51% 103 29.98 0.0
22 15:55 SW 7 10.00 Partly Cloudy SCT055 SCT065 SCT080 93.9 71.2 48% 101 29.98 0.0
22 15:35 NW 8 10.00 Partly Cloudy SCT055 SCT065 95.7 70.5 44% 103 29.99 0.0
22 15:15 NW 8 10.00 Partly Cloudy SCT065 95.5 69.4 43% 102 30 0.0
22 14:55 Calm 10.00 Fair CLR 96.1 69.6 42% 102 30 0.0
22 14:35 W 6 10.00 Partly Cloudy SCT050 95.2 69.6 43% 101 30.01 0.0
22 14:15 NW 6 10.00 Partly Cloudy SCT050 94.6 68.5 43% 100 30.02 0.0
22 13:55 SW 7 10.00 Partly Cloudy SCT048 94.3 71.2 94.5 78.8 47% 102 30.03 0.0
22 13:35 W 6 10.00 Fair CLR 94.5 72.1 48% 103 30.04 0.0
22 13:15 N 7 10.00 Fair CLR 93.4 72.1 50% 102 30.05 0.0
22 12:55 Calm 10.00 Fair CLR 92.3 71.8 51% 100 30.06 0.0
22 12:35 N 5 10.00 Fair CLR 92.5 73.2 53% 102 30.08 0.0
22 12:15 SW 5 10.00 Fair CLR 91.4 73.2 55% 100 30.08 0.0
22 11:55 N 5 10.00 Fair CLR 90.5 72.9 56% 99 30.09 0.0
22 11:35 W 3 10.00 Fair CLR 90.1 72.1 56% 98 30.09 0.0
22 11:15 Calm 10.00 Fair CLR 90 72.9 57% 98 30.1 0.0
22 10:55 N 3 10.00 Fair CLR 88.7 72.1 58% 96 30.1 0.0
22 10:35 N 6 10.00 Fair CLR 87.6 73 62% 95 30.1 0.0
22 10:15 NW 3 10.00 Fair CLR 87.1 73.2 64% 95 30.1 0.0
22 09:55 N 6 10.00 Fair CLR 85.5 73.4 67% 93 30.1 0.0
22 09:35 NE 3 10.00 Fair CLR 83.8 73.6 71% 91 30.1 0.0
22 09:15 N 3 10.00 Partly Cloudy SCT070 SCT090 82.4 73.4 74% 88 30.1 0.0
22 08:55 N 6 10.00 Mostly Cloudy SCT070 BKN080 81.5 73.4 77% 87 30.1 0.0
22 08:35 NE 3 10.00 Mostly Cloudy BKN080 81 73 77% 86 30.1 0.0
22 08:15 N 5 10.00 Mostly Cloudy BKN080 80.6 72.7 77% 85 30.09 0.0
22 07:55 Calm 10.00 Fair CLR 78.6 73.2 78.6 72.5 84% 82 30.09 0.0
22 07:35 Calm 10.00 Fair CLR 75.6 72.9 91% 75 30.08 0.0
22 07:15 Calm 10.00 Fair CLR 74.3 71.6 91% 30.08 0.0
22 06:55 Calm 10.00 Fair CLR 72.9 70.7 93% 30.07 0.0
22 06:35 Calm 10.00 Fair CLR 72.7 70.7 94% 30.06 0.0
22 06:15 Calm 10.00 Fair CLR 72.7 70.7 94% 30.06 0.0
22 05:55 Calm 10.00 Fair CLR 72.9 70.7 93% 30.05 0.0
22 05:35 Calm 10.00 Fair CLR 72.9 70.7 93% 30.05 0.0
22 05:15 Calm 10.00 Fair CLR 73.4 71.1 92% 30.04 0.0
22 04:55 Calm 10.00 Fair CLR 73.6 70.9 91% 30.04 0.0
22 04:35 Calm 10.00 Fair CLR 73.8 70.9 91% 30.04 0.0
22 04:15 Calm 10.00 Fair CLR 74.5 71.6 91% 30.04 0.0
22 03:55 Calm 10.00 Fair CLR 74.8 71.6 90% 30.05 0.0
22 03:35 Calm 10.00 Fair CLR 74.3 70.9 89% 30.05 0.0
22 03:15 Calm 10.00 Fair CLR 74.7 70.7 88% 30.06 0.0
22 02:55 Calm 10.00 Fair CLR 75.2 71.2 88% 75 30.07 0.0
22 02:35 Calm 10.00 Fair CLR 74.8 71.4 89% 30.08 0.0
22 02:15 Calm 10.00 Fair CLR 75 71.2 88% 74 30.08 0.0
22 01:55 Calm 10.00 Fair CLR 76.1 71.4 90.7 75.6 86% 77 30.08 0.0
22 01:35 Calm 10.00 Fair CLR 76.1 71.6 86% 77 30.08 0.0
22 01:15 Calm 10.00 Fair CLR 76.5 71.8 86% 77 30.09 0.0
22 00:55 Calm 10.00 Fair CLR 77 71.8 84% 78 30.09 0.0
22 00:35 Calm 10.00 Fair CLR 77.2 71.8 84% 79 30.09 0.0
22 00:15 Calm 10.00 Fair CLR 77 71.6 83% 78 30.09 0.0
21 23:55 Calm 10.00 Fair CLR 78.3 71.6 80% 81 30.09 0.0
21 23:35 Calm 10.00 Fair CLR 77.9 71.1 80% 80 30.08 0.0
21 23:15 Calm 10.00 Fair CLR 78.1 71.6 81% 80 30.08 0.0
21 22:55 Calm 10.00 Fair CLR 80.4 70.7 72% 84 30.08 0.0
21 22:35 Calm 10.00 Fair CLR 82.6 69.8 65% 86 30.07 0.0
21 22:15 N 3 10.00 Fair CLR 80.2 70.3 72% 84 30.06 0.0
21 21:55 Calm 10.00 Fair CLR 83.8 68.9 61% 87 30.06 0.0
21 21:35 Calm 10.00 Fair CLR 85.3 68.5 57% 89 30.05 0.0
21 21:15 Calm 10.00 Fair CLR 86 68.4 56% 90 30.05 0.0
21 20:55 N 3 10.00 Fair CLR 86.7 68.4 54% 90 30.04 0.0
21 20:35 N 5 10.00 Fair CLR 87.8 68.4 53% 92 30.04 0.0
21 20:15 N 7 10.00 Fair CLR 89.6 67.8 49% 93 30.04 0.0
21 19:55 N 7 10.00 Fair CLR 90.7 67.8 93.9 90.5 47% 95 30.03 0.0
21 19:35 N 7 10.00 Fair CLR 91.4 67.5 45% 95 30.03 0.0
21 19:15 N 10 10.00 Fair CLR 92.3 68.4 46% 97 30.03 0.0
21 18:55 N 8 10.00 Partly Cloudy SCT055 92.8 68.9 46% 98 30.03 0.0
21 18:35 N 3 10.00 Partly Cloudy SCT055 93 68.7 45% 98 30.03 0.0
21 18:15 NE 6 10.00 Partly Cloudy SCT055 93 68.7 45% 98 30.03 0.0
21 17:55 N 9 10.00 Partly Cloudy SCT055 93.9 69.6 45% 100 30.03 0.0
21 17:35 N 7 10.00 Fair CLR 93.2 69.4 46% 99 30.03 0.0
21 17:15 N 8 10.00 Fair CLR 93.4 68.4 44% 98 30.04 0.0
21 16:55 N 3 10.00 Fair CLR 92.7 67.3 43% 96 30.04 0.0
21 16:35 N 7 10.00 Partly Cloudy SCT050 SCT065 93.4 68.2 44% 98 30.05 0.0
21 16:15 NE 9 G 16 10.00 Partly Cloudy SCT050 SCT065 92.8 69.1 46% 98 30.05 0.0
21 15:55 N 8 10.00 Partly Cloudy SCT050 92.7 69.1 46% 98 30.06 0.0
21 15:35 N 3 10.00 Partly Cloudy SCT050 92.8 69.4 47% 98 30.06 0.0
21 15:15 NE 9 10.00 Mostly Cloudy SCT050 BKN070 91.8 69.1 48% 97 30.08 0.0
21 14:55 NE 5 10.00 Partly Cloudy SCT050 SCT070 92.5 69.3 47% 98 30.08 0.0
21 14:35 N 8 10.00 Mostly Cloudy SCT048 BKN050 91.8 69.6 48% 97 30.09 0.0
21 14:15 NE 5 10.00 Partly Cloudy SCT050 SCT060 92.3 69.3 47% 98 30.1 0.0
21 13:55 N 7 10.00 Partly Cloudy SCT050 92.3 69.6 92.5 72.5 48% 98 30.11 0.0
21 13:35 N 7 10.00 Partly Cloudy SCT046 SCT055 90.5 68.9 49% 95 30.12 0.0
21 13:15 N 9 10.00 Partly Cloudy SCT044 SCT049 90.5 70.3 52% 96 30.11 0.0
21 12:55 N 8 10.00 Fair CLR 89.2 69.8 53% 94 30.12 0.0
21 12:35 N 10 G 17 10.00 Partly Cloudy SCT035 88.3 70 55% 93 30.12 0.0
21 12:15 NE 7 10.00 Partly Cloudy SCT033 87.3 70.2 57% 92 30.13 0.0
21 11:55 NE 9 10.00 Partly Cloudy SCT033 SCT040 87.1 70.7 58% 93 30.14 0.0
21 11:35 NE 10 10.00 Mostly Cloudy BKN033 84.6 70.2 62% 89 30.14 0.0
21 11:15 N 9 10.00 Partly Cloudy SCT029 85.6 70.5 61% 91 30.14 0.0
21 10:55 NE 9 10.00 Fair CLR 85.1 70.5 62% 90 30.14 0.0
21 10:35 NE 7 10.00 Fair CLR 83.8 70.5 64% 88 30.14 0.0
21 09:55 NE 6 10.00 Fair CLR 81 69.6 69% 84 30.15 0.0
21 09:35 N 9 10.00 Fair CLR 79.5 69.8 72% 82 30.15 0.0
21 09:15 N 9 10.00 Fair CLR 77.9 69.6 76% 80 30.15 0.0
21 08:55 N 8 10.00 Fair CLR 76.8 69.3 78% 78 30.15 0.0
21 08:35 N 6 10.00 Fair CLR 75.2 68.5 80% 76 30.15 0.0
21 08:15 N 9 10.00 Fair CLR 73.6 68.2 83% 30.16 0.0
21 07:55 N 6 10.00 Fair CLR 72.5 67.6 74.1 68.4 85% 30.16 0.0
21 07:35 N 5 10.00 Fair CLR 70.7 67.1 88% 30.16 0.0
21 07:15 N 3 10.00 Fair CLR 69.3 66.4 91% 30.16 0.0
21 06:55 Calm 10.00 Fair CLR 68.5 65.8 91% 30.16 0.0
21 06:35 Calm 10.00 Fair CLR 69.3 66.2 90% 30.15 0.0
21 06:15 Calm 10.00 Fair CLR 69.8 66.2 88% 30.15 0.0
21 05:55 N 5 10.00 Fair CLR 69.8 66.2 88% 30.14 0.0
21 05:35 N 5 10.00 Fair CLR 70.2 66.2 87% 30.14 0.0
21 05:15 N 3 10.00 Fair CLR 69.8 66 88% 30.13 0.0
21 04:55 N 3 10.00 Fair CLR 70.2 66 87% 30.13 0.0
21 04:35 N 3 10.00 Fair CLR 70.5 66 86% 30.13 0.0
21 04:15 N 5 10.00 Fair CLR 70.7 66.2 86% 30.13 0.0
21 03:55 N 3 10.00 Fair CLR 71.1 66.2 85% 30.15 0.0
21 03:35 Calm 10.00 Fair CLR 71.2 66.2 84% 30.15 0.0
21 03:15 N 5 10.00 Fair CLR 71.6 66.2 83% 30.15 0.0
21 02:55 Calm 10.00 Fair CLR 72.7 66.2 80% 30.15 0.0
21 02:35 NE 3 10.00 Fair CLR 72.9 66.4 80% 30.16 0.0
21 02:15 N 3 10.00 Fair CLR 73 66.6 80% 30.16 0.0
21 01:55 NE 3 10.00 Fair CLR 74.1 67.1 88.7 74.1 79% 30.16 0.0
21 01:35 NE 5 10.00 Fair CLR 74.5 67.1 78% 30.17 0.0
21 01:15 NE 3 10.00 Fair CLR 75.2 67.5 77% 76 30.18 0.0
21 00:55 N 3 10.00 Fair CLR 75.9 67.6 76% 77 30.18 0.0
21 00:35 NE 3 10.00 Fair CLR 76.6 68 75% 78 30.18 0.0
21 00:15 NE 5 10.00 Fair CLR 77.4 68 73% 79 30.18 0.0
20 23:55 NE 5 10.00 Fair CLR 78.8 67.8 69% 81 30.19 0.0
20 23:35 NE 5 10.00 Fair CLR 79.2 67.6 68% 81 30.18 0.0
20 23:15 NE 7 10.00 Fair CLR 79.7 67.5 66% 82 30.18 0.0
20 22:55 NE 6 10.00 Fair CLR 80.4 67.1 64% 83 30.17 0.0
20 22:15 NE 6 10.00 Fair CLR 81.3 66.4 61% 84 30.15 0.0
20 21:55 NE 6 10.00 Fair CLR 81.7 66.2 60% 84 30.14 0.0
20 21:35 NE 6 10.00 Fair CLR 82.9 66.2 57% 85 30.14 0.0
20 21:15 NE 8 10.00 Fair CLR 84.2 65.5 53% 86 30.13 0.0
20 20:55 NE 7 10.00 Fair CLR 85.1 64.8 51% 87 30.13 0.0
20 20:35 NE 12 G 17 10.00 Fair CLR 86.4 63.5 47% 87 30.12 0.0
20 20:15 NE 10 G 17 10.00 Fair CLR 87.6 61.7 42% 88 30.11 0.0
20 19:55 NE 7 10.00 Fair CLR 88.7 60.3 93.4 85.3 38% 88 30.11 0.0
20 19:35 NE 9 G 16 7.00 Fair CLR 89.6 60.8 38% 90 30.1 0.0
20 19:15 NE 8 10.00 Fair CLR 90.3 62.2 39% 91 30.1 0.0
20 18:55 NE 14 G 21 10.00 Fair CLR 90.9 61.9 38% 91 30.1 0.0
20 18:35 NE 13 G 17 10.00 Partly Cloudy SCT065 91.9 62.8 38% 93 30.1 0.0
20 18:15 E 13 G 18 10.00 Partly Cloudy SCT065 92.3 63.1 38% 93 30.1 0.0
20 17:55 NE 12 G 16 10.00 Fair CLR 92.5 62.4 37% 93 30.1 0.0
20 17:35 NE 8 G 18 10.00 Fair CLR 93.2 64.4 39% 95 30.1 0.0
20 17:15 NE 9 G 17 10.00 Partly Cloudy SCT055 SCT080 93 65.7 41% 96 30.1 0.0
20 16:55 NE 14 G 22 10.00 Partly Cloudy SCT055 SCT080 91.8 63.3 39% 93 30.1 0.0
20 16:35 E 7 10.00 Partly Cloudy SCT055 SCT070 SCT080 91.4 66 43% 94 30.11 0.0
20 16:15 E 10 10.00 Partly Cloudy SCT055 SCT070 92.3 66.9 43% 96 30.12 0.0
20 15:55 NE 10 10.00 Partly Cloudy SCT046 SCT055 SCT090 92.3 68.4 46% 97 30.13 0.0
20 15:35 NE 8 10.00 Partly Cloudy SCT046 SCT090 91.8 70.7 50% 98 30.13 0.0
20 15:15 NE 8 G 18 10.00 Partly Cloudy SCT075 90.9 69.3 49% 96 30.14 0.0
20 14:55 E 9 10.00 Partly Cloudy SCT070 89.6 69.6 52% 95 30.15 0.0
20 14:35 E 12 G 23 10.00 Partly Cloudy SCT044 SCT055 SCT065 88 68.9 53% 92 30.16 0.0
20 14:15 NE 13 G 20 10.00 Overcast BKN042 BKN060 OVC080 87.1 72 61% 94 30.16 0.0
20 13:55 NE 12 G 20 10.00 Mostly Cloudy SCT042 BKN060 BKN070 88.3 70.3 90.7 78.1 55% 94 30.17 0.0
20 13:35 NE 13 G 17 10.00 Overcast BKN048 BKN060 OVC075 88.3 69.8 54% 93 30.17 0.0
20 13:15 E 13 G 17 10.00 Mostly Cloudy BKN048 BKN055 BKN075 90.7 69.1 49% 95 30.17 0.0
20 12:55 E 12 G 17 10.00 Mostly Cloudy SCT042 SCT050 BKN065 88.2 68.9 53% 92 30.17 0.0
20 12:35 E 10 G 16 10.00 Mostly Cloudy SCT035 BKN042 BKN050 87.8 69.3 54% 92 30.18 0.0
20 12:15 E 10 G 17 10.00 Mostly Cloudy SCT035 SCT043 BKN055 87.1 71.1 59% 93 30.18 0.0
20 11:55 E 7 10.00 Mostly Cloudy SCT031 SCT037 BKN060 87.1 71.4 60% 93 30.19 0.0
20 11:35 E 8 G 18 10.00 Partly Cloudy SCT031 SCT037 SCT044 87.1 71.2 59% 93 30.19 0.0
20 11:15 E 12 10.00 Mostly Cloudy SCT029 BKN037 BKN044 86.5 72.3 63% 93 30.19 0.0
20 10:55 E 8 10.00 Overcast BKN029 BKN035 OVC110 84.6 71.4 65% 90 30.19 0.0
20 10:35 E 12 G 16 10.00 Overcast BKN027 BKN033 OVC110 83.8 71.2 66% 89 30.18 0.0
20 10:15 E 10 G 16 10.00 Mostly Cloudy BKN025 BKN085 BKN110 83.7 72.1 68% 89 30.18 0.0
20 09:55 E 13 G 17 10.00 Mostly Cloudy BKN023 BKN100 83.5 72.1 69% 89 30.18 0.0
20 09:35 E 10 10.00 Mostly Cloudy BKN023 BKN070 82.2 71.8 71% 87 30.18 0.0
20 09:15 E 8 G 18 10.00 Overcast OVC019 81.7 72 72% 86 30.18 0.0
20 08:55 E 7 G 17 10.00 Overcast OVC017 80.2 72.5 77% 84 30.17 0.0
20 08:35 NE 8 10.00 Overcast BKN015 OVC060 79.7 72.5 79% 83 30.17 0.0
20 08:15 E 8 10.00 Overcast SCT013 OVC060 79.2 72 79% 82 30.16 0.0
20 07:55 E 7 10.00 Overcast SCT013 OVC060 77.9 71.8 77.9 73.6 82% 80 30.15 0.0
20 07:35 NE 6 10.00 Overcast SCT013 OVC060 76.6 71.2 83% 78 30.15 0.0
20 07:15 NE 6 10.00 Overcast SCT043 SCT050 OVC055 75.7 70.9 85% 76 30.14 0.0
20 06:55 NE 5 10.00 Mostly Cloudy SCT042 BKN050 75.2 70.7 86% 75 30.13 0.0
20 06:35 E 5 10.00 Partly Cloudy SCT024 SCT050 74.3 69.8 86% 30.13 0.0
20 06:15 NE 7 10.00 Partly Cloudy SCT050 74.3 69.3 84% 30.12 0.0
20 05:55 NE 3 10.00 Mostly Cloudy SCT030 BKN050 73.8 68.5 84% 30.12 0.0
20 05:35 NE 3 10.00 Fair CLR 73.8 68.2 83% 30.11 0.0
20 05:15 NE 3 10.00 Partly Cloudy SCT024 73.9 68 82% 30.11 0.0
20 04:55 NE 3 10.00 Partly Cloudy SCT024 SCT055 74.7 68 80% 30.11 0.0
20 04:35 NE 6 10.00 Mostly Cloudy SCT024 BKN029 75 67.6 78% 76 30.1 0.0
20 04:15 NE 8 10.00 Mostly Cloudy BKN026 75.2 67.5 77% 76 30.11 0.0
20 03:55 NE 6 10.00 Mostly Cloudy SCT028 BKN050 75.2 67.3 77% 76 30.11 0.0
20 03:35 NE 5 10.00 Overcast OVC050 75.6 67.1 75% 77 30.11 0.0
20 03:15 NE 6 10.00 Overcast OVC050 75.6 67.1 75% 77 30.12 0.0
20 02:55 NE 7 10.00 Overcast SCT044 OVC050 74.8 66.6 76% 30.12 0.0
20 02:35 NE 7 10.00 Overcast OVC060 74.5 66.4 76% 30.13 0.0
20 02:15 NE 6 10.00 Mostly Cloudy BKN065 BKN070 74.3 66.2 76% 30.13 0.0
20 01:55 NE 3 10.00 Fair CLR 73.8 65.8 84.6 73.4 76% 30.13 0.0
20 01:35 NE 3 10.00 Fair CLR 73.8 65.7 76% 30.14 0.0
20 01:15 NE 3 10.00 Fair CLR 74.3 65.7 75% 30.15 0.0
20 00:55 NE 5 10.00 Fair CLR 75.2 65.7 72% 77 30.16 0.0
20 00:35 NE 3 10.00 Fair CLR 76.1 65.5 70% 78 30.15 0.0
20 00:15 NE 5 10.00 Fair CLR 76.5 65.5 69% 78 30.15 0.0
19 23:55 NE 7 10.00 Fair CLR 77.2 65.7 68% 79 30.15 0.0
19 23:35 NE 5 10.00 Fair CLR 77.9 65.8 67% 80 30.15 0.0
19 23:15 NE 7 10.00 Fair CLR 78.4 65.8 65% 80 30.15 0.0
19 22:55 NE 9 G 16 10.00 Fair CLR 79 65.5 63% 81 30.15 0.0
19 22:35 NE 8 10.00 Fair CLR 79 64.4 61% 81 30.14 0.0
Date Time (edt) Wind (mph) Vis. (mi.) Weather Sky Cond. Air Dwpt Max. Min. Relative Humidity Wind Chill (°F) Heat Index (°F) altimeter (in) sea level (mb) 1 hr 3 hr 6 hr
6 hour
Temperature (ºF) Pressure Precipitation (in)